Regional Weather Roundup
Issued by NWS Albany, NY

Current Version | Previous Version | Text Only | Print | Product List | Glossary On
Versions: 1 2 3 4 5 6 7 8 9 10 11 12 13 14 15 16 17 18 19 20 21 22 23 24 25 26 27 28
000
ASUS41 KALY 030310
RWRALY

NEW YORK STATE HOURLY WEATHER ROUNDUP
NATIONAL WEATHER SERVICE ALBANY NY
1100 PM EDT MON MAY 02 2016

NOTE: "FAIR" INDICATES FEW OR NO CLOUDS BELOW 12,000 FEET WITH NO
SIGNIFICANT WEATHER AND/OR NO OBSTRUCTIONS TO VISIBILITY.

NYZ032-033-038>043-046>054-057>066-NYZ062>081-082-084-030400-
EAST


CITY           SKY/WX    TMP DP  RH WIND       PRES   REMARKS
ALBANY         CLOUDY    49  45  86 NW8       29.93F
GLENS FALLS    LGT RAIN  47  44  90 NE10      29.96S FOG
POUGHKEEPSIE   CLOUDY    52  49  89 CALM      29.93S
NEWBURGH       PTCLDY    52  52 100 E7        29.94R
MONTGOMERY     CLOUDY    51  49  92 NE3       29.93R
WHITE PLAINS   CLOUDY    51  50  96 CALM      29.94R FOG
ISLIP          CLOUDY    50  47  89 CALM      29.94R
NEW YORK CITY  CLOUDY    56  50  80 CALM      29.93S
CENTRAL PARK   CLOUDY    57  51  80 N3        29.96S
$$

NYZ005>009-017-018-044>046-055-056-030400-
CENTRAL


CITY           SKY/WX    TMP DP  RH WIND       PRES   REMARKS
FULTON         CLOUDY    46  42  86 NW3       29.99S
SYRACUSE       CLOUDY    45  43  93 NW3       29.98S
ROME           CLOUDY    47  46  97 NW3       29.98F
ELMIRA         CLOUDY    47  41  80 NE6       29.96F
BINGHAMTON     CLOUDY    44  40  85 NE6       29.95F
MONTICELLO     CLOUDY    46  46 100 W5        29.95F
$$

NYZ026>034-041>043-087-030400-
NORTH


CITY           SKY/WX    TMP DP  RH WIND       PRES   REMARKS
WATERTOWN      CLOUDY    40  39  97 N6        29.99F FOG
FORT DRUM      NOT AVBL
MASSENA        CLOUDY    45  41  86 CALM      30.00F
SARANAC LAKE   CLOUDY    41  38  89 CALM      29.93F
PLATTSBURGH    NOT AVBL
$$

NYZ001>004-010>016-019>021-085-030400-
WEST


CITY           SKY/WX    TMP DP  RH WIND       PRES   REMARKS
NIAGARA FALLS  CLOUDY    44  39  82 NE3       29.97F
BUFFALO        CLOUDY    45  40  82 E5        29.97F
DUNKIRK        PTCLDY    42  40  92 N3        29.96F
JAMESTOWN      CLOUDY    45  39  81 N5        29.94F
WELLSVILLE     CLOUDY    45  42  89 NE5       29.95F
ROCHESTER      CLOUDY    44  41  89 CALM      29.98F
PENN YAN       CLOUDY    46  42  86 VRB3      29.97F
$$

             KEY
       WCI = WIND CHILL INDEX
       VSB = VISIBILITY
       HX  = HEAT INDEX
$$




USA.gov is the U.S. government's official web portal to all federal, state and local government web resources and services.